Location: Recife
(8.0585°S, 34.8848°W)
Time: 10:15:52
(UTC-03:00)

Altair - Pass Details

Date: 17 April 2026
Orbit: 1501 x 1682 km, 47.2° (Epoch: 20 May)

Event Time Altitude Azimuth Distance (km) Brightness Sun altitude
Rises 19:57:32 0° 339° (NNW) 4,673 10.3 -40.3°
Reaches altitude 10° 20:00:56 10° 348° (NNW) 3,674 9.6 -41.1°
Enters shadow 20:03:45 20° 359° (N) 2,936 8.9 -41.8°
Maximum altitude 20:09:09 37° 51° (NE) 2,192 - -43.1°
Drops below altitude 10° 20:17:18 10° 115° (ESE) 3,654 - -45.1°
Sets 20:20:38 0° 123° (ESE) 4,645 - -46.0°
